Location: Asheville, NC
(35.6000°N, 82.5500°W)
Time: 07:01:01
(UTC-05:00)

Vanguard 1 Rocket - Pass Details

Date: 13 February 2018
Orbit: 655 x 4222 km, 34.3° (Epoch: 18 February)

Event Time Altitude Azimuth Distance (km) Brightness Sun altitude
Rises 06:39:52 0° 286° (WNW) 8,291 - -8.6°
Exits shadow 06:44:57 - 284° (WNW) 7,241 11.3 -7.6°
Reaches altitude 10° 06:46:12 10° 284° (WNW) 6,973 11.2 -7.3°
Maximum altitude 07:06:32 56° 214° (SSW) 2,909 9.9 -3.3°
Drops below altitude 10° 07:17:19 10° 138° (SE) 3,919 11.7 -1.2°
Sets 07:19:50 0° 134° (SE) 4,573 12.3 -0.7°
